Alpena, MI

10:47 AM EDT on April 23, 2017 (GMT -0400)
Alpena County Regional

Weather History for KAPN - December, 2014

Change the Weather History Date:

Wednesday, December 3, 2014

  Actual Average Record
Temperature  
Mean Temperature 26 °F 29 °F  
Max Temperature 30 °F 36 °F 64 °F (1982)
Min Temperature 21 °F 23 °F -9 °F (1940)
Degree Days  
Heating Degree Days 39 36  
Month to date heating degree days 128 106  
Since 1 July heating degree days 2059 1929  
Moisture  
Dew Point 21 °F    
Average Humidity 75    
Maximum Humidity 92    
Minimum Humidity 58    
Precipitation  
Precipitation T in 0.06 in 1.02 in (1970)
Month to date precipitation 0.01 0.19  
Year to date precipitation 33.12 26.60  
Snow  
Snow T in 0.50 in 8.40 in (1970)
Month to date snowfall T 1.6  
Since 1 July snowfall 15.6 9.7  
Snow Depth T in    
Sea Level Pressure  
Sea Level Pressure 29.99 in    
Wind  
Wind Speed 10 mph (WSW)    
Max Wind Speed 22 mph    
Max Gust Speed 31 mph    
Visibility 9 miles    
Events Snow    
T = Trace of Precipitation, MM = Missing Value Source: NWS Daily Summary

Daily Weather History Graph

Daily Weather History Graph

Search for Another Location

Airport or City:

Trip Planner

Search our weather history database for the weather conditions in past years. The results will help you decide how hot, cold, wet, or windy it might be!

Date:

Astronomy

Dec. 03, 2014 Rise Set
Actual Time 7:54 AM EST 4:53 PM EST
Civil Twilight 7:21 AM EST 5:26 PM EST
Nautical Twilight 6:44 AM EST 6:03 PM EST
Astronomical Twilight 6:09 AM EST 6:38 PM EST
Moon 3:20 PM EST (12/3) 4:33 AM EST (12/3)
Length of Visible Light 10h 05m
Length of Day
8h 58m
Waxing Gibbous, 91% of the Moon is Illuminated
Dec 3
Waxing Gibbous
Dec 6
Full
Dec 14
Last Quarter
Dec 21
New
Dec 28
First Quarter

Hourly Weather History & Observations

Time (EST) Temp. Windchill Dew Point Humidity Pressure Visibility Wind Dir Wind Speed Gust Speed Precip Events Conditions
12:54 AM 28.0 °F 19.3 °F 25.0 °F 88% 29.93 in 10.0 mi SSW 9.2 mph - N/A   Overcast
1:13 AM 28.0 °F 20.8 °F 25.0 °F 88% 29.89 in 10.0 mi SSW 6.9 mph - N/A   Overcast
1:54 AM 28.0 °F 19.3 °F 26.1 °F 92% 29.91 in 9.0 mi SSW 9.2 mph - N/A   Overcast
2:23 AM 28.0 °F 20.0 °F 26.1 °F 92% 29.88 in 6.0 mi SSW 8.1 mph - N/A   Overcast
2:54 AM 28.0 °F 20.0 °F 27.0 °F 96% 29.91 in 5.0 mi SSW 8.1 mph - N/A   Overcast
3:54 AM 28.9 °F 22.8 °F 27.0 °F 92% 29.90 in 8.0 mi SW 5.8 mph - N/A   Overcast
4:13 AM 28.9 °F 21.9 °F 27.0 °F 92% 29.87 in 9.0 mi SW 6.9 mph - N/A   Overcast
4:54 AM 30.0 °F 22.4 °F 26.1 °F 85% 29.91 in 10.0 mi WSW 8.1 mph - N/A   Overcast
5:54 AM 30.0 °F 23.2 °F 25.0 °F 82% 29.90 in 10.0 mi WSW 6.9 mph - N/A   Overcast
6:22 AM 30.0 °F 22.4 °F 24.1 °F 79% 29.87 in 10.0 mi WSW 8.1 mph - N/A   Overcast
6:54 AM 30.0 °F 24.1 °F 23.0 °F 75% 29.91 in 10.0 mi WSW 5.8 mph - N/A   Overcast
7:39 AM 30.0 °F 21.1 °F 21.9 °F 72% 29.87 in 10.0 mi WSW 10.4 mph - N/A   Overcast
7:54 AM 30.0 °F 21.7 °F 21.9 °F 72% 29.90 in 10.0 mi WSW 9.2 mph - N/A   Overcast
8:38 AM 30.0 °F 20.0 °F 21.0 °F 69% 29.87 in 10.0 mi WSW 12.7 mph 23.0 mph N/A   Overcast
8:54 AM 30.0 °F 21.7 °F 21.0 °F 69% 29.91 in 10.0 mi WSW 9.2 mph 19.6 mph N/A   Overcast
9:54 AM 30.0 °F 21.1 °F 21.0 °F 69% 29.92 in 10.0 mi WSW 10.4 mph 20.7 mph N/A   Overcast
10:54 AM 30.0 °F 21.1 °F 19.0 °F 64% 29.94 in 10.0 mi WNW 10.4 mph 18.4 mph N/A   Overcast
11:44 AM 30.0 °F 21.1 °F 19.9 °F 66% 29.91 in 10.0 mi West 10.4 mph 17.3 mph N/A   Overcast
11:54 AM 28.9 °F 16.5 °F 19.9 °F 69% 29.94 in 10.0 mi West 18.4 mph 29.9 mph N/A   Overcast
12:01 PM 28.9 °F 17.3 °F 19.9 °F 69% 29.91 in 10.0 mi West 16.1 mph 31.1 mph N/A   Overcast
12:54 PM 30.0 °F 18.3 °F 19.0 °F 64% 29.96 in 10.0 mi West 17.3 mph 29.9 mph N/A   Overcast
1:54 PM 28.9 °F 20.4 °F 19.9 °F 69% 29.97 in 10.0 mi WNW 9.2 mph 17.3 mph N/A   Overcast
2:03 PM 30.0 °F 20.5 °F 19.0 °F 64% 29.94 in 10.0 mi West 11.5 mph 21.9 mph N/A   Overcast
2:54 PM 28.9 °F 18.6 °F 19.0 °F 67% 29.99 in 10.0 mi West 12.7 mph 20.7 mph N/A   Overcast
3:54 PM 28.9 °F 17.7 °F 17.1 °F 61% 30.02 in 10.0 mi West 15.0 mph 24.2 mph N/A   Overcast
4:54 PM 28.0 °F 19.3 °F 16.0 °F 61% 30.05 in 10.0 mi West 9.2 mph 21.9 mph N/A   Mostly Cloudy
5:54 PM 27.0 °F 16.1 °F 16.0 °F 63% 30.10 in 10.0 mi West 12.7 mph 27.6 mph N/A   Overcast
6:54 PM 26.1 °F 15.0 °F 16.0 °F 66% 30.12 in 10.0 mi West 12.7 mph 24.2 mph N/A   Overcast
7:54 PM 26.1 °F 14.0 °F 15.1 °F 63% 30.17 in 10.0 mi West 15.0 mph 23.0 mph 0.00 in   Overcast
8:43 PM 24.1 °F 14.4 °F 18.0 °F 77% 30.16 in 3.0 mi WNW 9.2 mph 21.9 mph 0.00 in Snow Light Snow
8:52 PM 24.8 °F 17.9 °F 17.6 °F 74% 30.16 in 8.0 mi WNW 5.8 mph - 0.00 in Snow Light Snow
8:54 PM 24.1 °F 16.0 °F 18.0 °F 77% 30.20 in 9.0 mi WNW 6.9 mph - 0.00 in   Overcast
9:54 PM 23.0 °F 14.7 °F 19.0 °F 85% 30.21 in 7.0 mi NW 6.9 mph 17.3 mph 0.00 in Snow Light Snow
10:54 PM 21.9 °F 11.7 °F 12.9 °F 68% 30.24 in 10.0 mi WNW 9.2 mph - 0.00 in   Scattered Clouds
11:54 PM 21.0 °F 13.4 °F 12.0 °F 68% 30.26 in 10.0 mi West 5.8 mph - N/A   Clear